Location: Unspecified
(0.0000°N, 0.0000°E)
Time: 14:53:01
(UTC+00:00)

Envisat - Pass Details

Date: 13 April 2021
Orbit: 764 x 766 km, 98.1° (Epoch: 16 April)

Event Time Altitude Azimuth Distance (km) Brightness Sun altitude
Rises 04:46:43 0° 23° (NNE) 3,214 6.7 -18.2°
Reaches altitude 10° 04:49:06 10° 29° (NNE) 2,291 6.0 -17.6°
Maximum altitude 04:53:56 47° 102° (ESE) 1,002 4.0 -16.4°
Drops below altitude 10° 04:58:48 10° 175° (S) 2,301 5.4 -15.2°
Sets 05:01:10 0° 181° (S) 3,230 6.1 -14.7°
